• în România
  • Lista ţărilor
  • Pe 7 zile
  • Temperatura apei
  • Hartă satelitară
  • Meteo pe hartă
  • Widget-uri
  • user-avatar
    Intrare

    Meteo pe oră la Osiek

    Astăzi, 21 Octombrie, Sâmbătă

    Timp Temperatura Precipitaţii Vânt Presiune Umiditate
    00:00 +16°C° 0 mm 2 m/s 756 mmHg 65%
    01:00 +15°C° 0 mm 2 m/s 756 mmHg 70%
    02:00 +15°C° 0 mm 2 m/s 756 mmHg 74%
    03:00 +14°C° 0 mm 2 m/s 756 mmHg 77%
    04:00 +13°C° 0 mm 2 m/s 756 mmHg 80%
    05:00 +13°C° 0 mm 2 m/s 756 mmHg 80%
    06:00 +13°C° 0 mm 2 m/s 756 mmHg 80%
    07:00 +13°C° 0 mm 2 m/s 756 mmHg 80%
    08:00 +15°C° 0 mm 2 m/s 756 mmHg 70%
    09:00 +18°C° 0 mm 2 m/s 756 mmHg 61%
    10:00 +20°C° 0 mm 3 m/s 756 mmHg 51%
    11:00 +21°C° 0 mm 3 m/s 755 mmHg 46%
    12:00 +22°C° 0 mm 3 m/s 755 mmHg 40%
    13:00 +24°C° 0 mm 3 m/s 755 mmHg 35%
    14:00 +24°C° 0 mm 3 m/s 755 mmHg 37%
    15:00 +23°C° 0 mm 2 m/s 754 mmHg 40%
    16:00 +21°C° 0 mm 2 m/s 754 mmHg 42%
    17:00 +20°C° 0 mm 2 m/s 754 mmHg 46%
    18:00 +19°C° 0 mm 1 m/s 754 mmHg 51%
    19:00 +18°C° 0 mm 1 m/s 754 mmHg 55%
    20:00 +16°C° 0 mm 1 m/s 754 mmHg 57%
    21:00 +16°C° 0 mm 1 m/s 754 mmHg 58%
    22:00 +16°C° 0 mm 1 m/s 755 mmHg 60%
    23:00 +15°C° 0 mm 1 m/s 754 mmHg 62%

    Mâine, 22 Octombrie, Duminică

    Timp Temperatura Precipitaţii Vânt Presiune Umiditate
    00:00 +15°C° 0 mm 1 m/s 754 mmHg 64%
    01:00 +14°C° 0 mm 1 m/s 754 mmHg 66%
    02:00 +14°C° 0 mm 1 m/s 754 mmHg 68%
    03:00 +14°C° 0 mm 1 m/s 754 mmHg 70%
    04:00 +14°C° 0 mm 1 m/s 754 mmHg 71%
    05:00 +14°C° 0 mm 1 m/s 754 mmHg 72%
    06:00 +14°C° 0 mm 1 m/s 754 mmHg 72%
    07:00 +14°C° 0 mm 1 m/s 754 mmHg 72%
    08:00 +16°C° 0 mm 1 m/s 754 mmHg 66%
    09:00 +18°C° 0 mm 1 m/s 754 mmHg 60%
    10:00 +20°C° 0 mm 1 m/s 754 mmHg 53%
    11:00 +21°C° 0 mm 1 m/s 753 mmHg 51%
    12:00 +22°C° 0 mm 1 m/s 752 mmHg 48%
    13:00 +23°C° 0 mm 1 m/s 752 mmHg 46%
    14:00 +22°C° 0 mm 1 m/s 751 mmHg 48%
    15:00 +22°C° 0 mm 1 m/s 751 mmHg 50%
    16:00 +22°C° 0 mm 1 m/s 750 mmHg 51%
    17:00 +21°C° 0,3 mm 1 m/s 750 mmHg 55%
    18:00 +19°C° 0,3 mm 2 m/s 750 mmHg 58%
    19:00 +18°C° 0,3 mm 2 m/s 750 mmHg 62%
    20:00 +17°C° 0,5 mm 3 m/s 750 mmHg 67%
    21:00 +15°C° 0,5 mm 4 m/s 750 mmHg 72%
    22:00 +14°C° 0,5 mm 4 m/s 750 mmHg 78%
    23:00 +14°C° 0,7 mm 5 m/s 749 mmHg 80%

    Poimâine, 23 Octombrie, Luni

    Timp Temperatura Precipitaţii Vânt Presiune Umiditate
    00:00 +13°C° 0,7 mm 5 m/s 749 mmHg 82%
    01:00 +11°C° 0,7 mm 6 m/s 749 mmHg 84%
    02:00 +11°C° 3,6 mm 6 m/s 748 mmHg 85%
    03:00 +10°C° 3,6 mm 7 m/s 748 mmHg 86%
    04:00 +10°C° 3,6 mm 7 m/s 748 mmHg 88%
    05:00 +9°C° 3,5 mm 8 m/s 748 mmHg 87%
    06:00 +9°C° 3,5 mm 8 m/s 748 mmHg 86%
    07:00 +7°C° 3,5 mm 8 m/s 748 mmHg 86%
    08:00 +9°C° 1 mm 8 m/s 748 mmHg 85%
    09:00 +9°C° 1 mm 8 m/s 748 mmHg 85%
    10:00 +9°C° 1 mm 8 m/s 748 mmHg 84%
    11:00 +9°C° 1,5 mm 8 m/s 748 mmHg 84%
    12:00 +7°C° 1,5 mm 8 m/s 748 mmHg 84%
    13:00 +7°C° 1,5 mm 9 m/s 748 mmHg 84%
    14:00 +7°C° 2 mm 9 m/s 748 mmHg 84%
    15:00 +7°C° 2 mm 9 m/s 749 mmHg 84%
    16:00 +7°C° 2 mm 9 m/s 749 mmHg 85%
    17:00 +7°C° 1,8 mm 9 m/s 749 mmHg 84%
    18:00 +7°C° 1,8 mm 9 m/s 749 mmHg 84%
    19:00 +7°C° 1,8 mm 9 m/s 749 mmHg 83%
    20:00 +7°C° 0,9 mm 9 m/s 750 mmHg 83%
    21:00 +7°C° 0,9 mm 8 m/s 750 mmHg 84%
    22:00 +7°C° 0,9 mm 8 m/s 750 mmHg 84%
    23:00 +7°C° 0,9 mm 8 m/s 750 mmHg 84%

    24 Octombrie, Marţi

    Timp Temperatura Precipitaţii Vânt Presiune Umiditate
    00:00 +8°C° 0,9 mm 7 m/s 751 mmHg 84%
    01:00 +8°C° 0,9 mm 7 m/s 751 mmHg 85%
    02:00 +8°C° 0,4 mm 7 m/s 751 mmHg 84%
    03:00 +8°C° 0,4 mm 7 m/s 751 mmHg 83%
    04:00 +8°C° 0,4 mm 7 m/s 751 mmHg 83%
    05:00 +8°C° 0,1 mm 7 m/s 751 mmHg 82%
    06:00 +8°C° 0,1 mm 7 m/s 751 mmHg 82%
    07:00 +8°C° 0,1 mm 7 m/s 751 mmHg 82%
    08:00 +9°C° 0,1 mm 7 m/s 752 mmHg 80%
    09:00 +9°C° 0,1 mm 8 m/s 752 mmHg 77%
    10:00 +10°C° 0,1 mm 8 m/s 752 mmHg 75%
    11:00 +10°C° 0,3 mm 8 m/s 752 mmHg 76%
    12:00 +10°C° 0,3 mm 8 m/s 752 mmHg 76%
    13:00 +10°C° 0,3 mm 8 m/s 753 mmHg 77%
    14:00 +10°C° 0,6 mm 7 m/s 753 mmHg 77%
    15:00 +10°C° 0,6 mm 7 m/s 753 mmHg 76%
    16:00 +10°C° 0,6 mm 7 m/s 754 mmHg 76%
    17:00 +10°C° 0,2 mm 7 m/s 754 mmHg 76%
    18:00 +10°C° 0,2 mm 6 m/s 755 mmHg 76%
    19:00 +10°C° 0,2 mm 6 m/s 756 mmHg 75%
    20:00 +9°C° 0 mm 6 m/s 756 mmHg 75%
    21:00 +8°C° 0 mm 6 m/s 757 mmHg 75%
    22:00 +8°C° 0 mm 6 m/s 757 mmHg 76%
    23:00 +7°C° 0 mm 6 m/s 758 mmHg 76%

    25 Octombrie, Miercuri

    Timp Temperatura Precipitaţii Vânt Presiune Umiditate
    00:00 +7°C° 0 mm 5 m/s 758 mmHg 76%
    01:00 +7°C° 0 mm 5 m/s 758 mmHg 76%
    02:00 +6°C° 0 mm 5 m/s 758 mmHg 76%
    03:00 +6°C° 0 mm 5 m/s 759 mmHg 75%
    04:00 +6°C° 0 mm 5 m/s 759 mmHg 74%
    05:00 +6°C° 0 mm 5 m/s 759 mmHg 74%
    06:00 +5°C° 0 mm 4 m/s 759 mmHg 74%
    07:00 +5°C° 0 mm 4 m/s 760 mmHg 73%
    08:00 +6°C° 0 mm 4 m/s 760 mmHg 67%
    09:00 +8°C° 0 mm 5 m/s 760 mmHg 61%
    10:00 +9°C° 0 mm 5 m/s 761 mmHg 55%
    11:00 +9°C° 0 mm 5 m/s 760 mmHg 52%
    12:00 +10°C° 0 mm 6 m/s 760 mmHg 50%
    13:00 +11°C° 0 mm 6 m/s 760 mmHg 48%
    14:00 +10°C° 0 mm 5 m/s 760 mmHg 50%
    15:00 +10°C° 0 mm 5 m/s 760 mmHg 52%
    16:00 +9°C° 0 mm 5 m/s 760 mmHg 53%
    17:00 +8°C° 0 mm 5 m/s 761 mmHg 56%
    18:00 +8°C° 0 mm 5 m/s 761 mmHg 58%
    19:00 +7°C° 0 mm 5 m/s 761 mmHg 60%
    20:00 +6°C° 0 mm 5 m/s 762 mmHg 60%
    21:00 +6°C° 0 mm 5 m/s 762 mmHg 61%
    22:00 +5°C° 0 mm 5 m/s 762 mmHg 61%
    23:00 +5°C° 0 mm 5 m/s 763 mmHg 63%

    26 Octombrie, Joi

    Timp Temperatura Precipitaţii Vânt Presiune Umiditate
    00:00 +5°C° 0 mm 5 m/s 763 mmHg 64%
    01:00 +3°C° 0 mm 5 m/s 763 mmHg 65%
    02:00 +3°C° 0 mm 5 m/s 763 mmHg 66%
    03:00 +3°C° 0 mm 4 m/s 764 mmHg 67%
    04:00 +3°C° 0 mm 4 m/s 764 mmHg 68%
    05:00 +3°C° 0 mm 4 m/s 764 mmHg 69%
    06:00 +3°C° 0 mm 4 m/s 765 mmHg 69%
    07:00 +2°C° 0 mm 3 m/s 765 mmHg 70%
    08:00 +4°C° 0 mm 3 m/s 765 mmHg 63%
    09:00 +5°C° 0 mm 3 m/s 766 mmHg 57%
    10:00 +8°C° 0 mm 3 m/s 766 mmHg 51%
    11:00 +9°C° 0 mm 3 m/s 766 mmHg 48%
    12:00 +10°C° 0 mm 3 m/s 766 mmHg 44%
    13:00 +11°C° 0 mm 3 m/s 765 mmHg 41%
    14:00 +10°C° 0 mm 3 m/s 765 mmHg 43%
    15:00 +10°C° 0 mm 3 m/s 765 mmHg 44%
    16:00 +10°C° 0 mm 2 m/s 765 mmHg 46%
    17:00 +9°C° 0 mm 2 m/s 765 mmHg 48%
    18:00 +8°C° 0 mm 2 m/s 766 mmHg 50%
    19:00 +7°C° 0 mm 1 m/s 766 mmHg 53%
    20:00 +7°C° 0 mm 1 m/s 766 mmHg 54%
    21:00 +7°C° 0 mm 1 m/s 767 mmHg 54%
    22:00 +6°C° 0 mm 1 m/s 767 mmHg 55%
    23:00 +6°C° 0 mm 1 m/s 767 mmHg 56%
    Arată mai mult